This demonstration page uses our WeatherBlox Daily Observations layout. Learn more.

Left ArrowRight Arrow

44.31136, -96.79839

Hourly Observations for August 17, 2017

Temp ( °F °C ) Dew Point ( °F °C ) Humidity (%) Winds ( mph kmh ) Pressure ( in mb ) Visibility ( mi km ) Precip ( " mm )
12:56 am 00:56 Cloudy 65 18.3 63 17.2 93 93 NW 16 26 29.78 1008 N/A 0.01 0.25
1:56 am 01:56 Cloudy 65 18.3 63 17.2 93 93 NNW 15 24 29.78 1008 N/A 0.00 0.03
2:33 am 02:33 Cloudy 64 18 63 17 94 94 NW 18 30 29.68 1005 N/A 0.00 0.00
2:56 am 02:56 Cloudy 64 17.8 62 16.7 93 93 NW 18 30 29.78 1008 N/A 0.00 0.00
3:56 am 03:56 Cloudy 64 17.8 61 16.1 90 90 NW 18 30 29.78 1009 N/A 0.00 0.00
4:56 am 04:56 Cloudy 63 17.2 60 15.6 90 90 NW 15 24 29.79 1009 N/A 0.00 0.00
5:56 am 05:56 Cloudy 61 16.1 59 15 93 93 NW 16 26 29.82 1010 N/A 0.00 0.00
6:19 am 06:19 Partly Cloudy 61 16 57 14 88 88 NW 15 24 29.77 1008 N/A 0.00 0.00
6:31 am 06:31 Mostly Cloudy 61 16 57 14 88 88 NW 16 26 29.77 1008 N/A 0.00 0.00
6:56 am 06:56 Cloudy 60 15.6 58 14.4 93 93 NW 17 28 29.84 1011 N/A 0.00 0.00
7:56 am 07:56 Cloudy 62 16.7 58 14.4 86 86 NW 20 31 29.87 1011 N/A 0.00 0.00
8:13 am 08:13 Cloudy 63 17 57 14 83 83 NNW 14 22 29.83 1010 N/A 0.00 0.00
8:56 am 08:56 Cloudy 63 17.2 58 14.4 84 84 NW 18 30 29.88 1012 N/A 0.00 0.00
9:56 am 09:56 Mostly Cloudy 66 18.9 60 15.6 81 81 NW 16 26 29.90 1012 N/A 0.00 0.00
10:16 am 10:16 Partly Cloudy 66 19 61 16 83 83 NNW 20 31 29.83 1010 N/A 0.00 0.00
10:56 am 10:56 Partly Cloudy 68 20 60 15.6 76 76 NW 14 22 29.90 1013 N/A 0.00 0.00
11:56 am 11:56 Sunny 70 21.1 60 15.6 71 71 NW 17 28 29.91 1013 N/A 0.00 0.00
12:56 pm 12:56 Sunny 72 22.2 61 16.1 68 68 NW 15 24 29.91 1013 N/A 0.00 0.00
1:56 pm 13:56 Mostly Sunny 74 23.3 62 16.7 67 67 NW 17 28 29.91 1013 N/A 0.00 0.00
2:56 pm 14:56 Sunny 75 23.9 62 16.7 64 64 NNW 14 22 29.91 1013 N/A 0.00 0.00
3:56 pm 15:56 Sunny 75 23.9 61 16.1 62 62 NW 13 20 29.91 1013 N/A 0.00 0.00
4:56 pm 16:56 Sunny 76 24.4 59 15 56 56 NNW 10 17 29.91 1013 N/A 0.00 0.00
5:56 pm 17:56 Sunny 76 24.4 58 14.4 54 54 NNW 5 7 29.91 1013 N/A 0.00 0.00
6:56 pm 18:56 Sunny 74 23.3 61 16.1 64 64 NNW 3 6 29.92 1013 N/A 0.00 0.00
7:56 pm 19:56 Sunny 72 22.2 62 16.7 71 71 Calm 29.92 1013 N/A 0.00 0.00
8:56 pm 20:56 Clear 68 20 60 15.6 76 76 Calm 29.93 1013 N/A 0.00 0.00
9:56 pm 21:56 Clear 66 18.9 59 15 78 78 SE 3 6 29.93 1014 N/A 0.00 0.00
10:56 pm 22:56 Clear 66 18.9 60 15.6 81 81 ESE 3 6 29.93 1014 N/A 0.00 0.00
11:52 pm 23:52 Cloudy with Nearby Thunderstorms 64 18 61 16 88 88 W 9 15 29.94 1014 N/A 0.01 0.25
11:56 pm 23:56 Cloudy with Nearby Thunderstorms 66 18.9 60 15.6 81 81 W 9 15 30.00 1016 N/A 0.01 0.25

Powered by AerisWeather